Regional Weather Roundup
Issued by NWS

Home | Current Version | Previous Version | Text Only | Print | Product List | Glossary On
Versions: 1 2 3 4 5 6 7 8 9 10 11 12 13 14 15 16 17 18 19 20 21 22 23 24 25 26 27 28 29 30 31 32 33 34 35 36 37 38 39 40 41 42 43 44 45 46 47 48 49 50
914
ASUS46 KPQR 270310
RWROR

OREGON REGIONAL WEATHER ROUNDUP
NATIONAL WEATHER SERVICE PORTLAND OR
800 PM PDT THU MAY 26 2016

NOTE: "FAIR" INDICATES FEW OR NO CLOUDS BELOW 12,000 FEET WITH
NO SIGNIFICANT WEATHER AND/OR OBSTRUCTIONS TO VISIBILITY.

ORZ001>013-270400-
NORTHWEST OREGON


CITY           SKY/WX    TMP DP  RH WIND       PRES   REMARKS
ASTORIA        CLOUDY    54  48  80 NW9       30.22S
NEWPORT        PTCLDY    54  48  82 N8        30.28S
PORTLAND       PTCLDY    58  44  60 N5        30.20R
VANCOUVER WA   MOCLDY    58  44  60 NW6       30.19S
SCAPPOOSE      CLOUDY    57  44  62 W6        30.19S
HILLSBORO      PTCLDY    57  42  57 NW7       30.19S
AURORA         CLOUDY    58  43  57 N7        30.21R
MCMINNVILLE    PTCLDY    58  41  53 NW9       30.21S
SALEM          PTCLDY    58  42  55 W10       30.20S
CORVALLIS        N/A     57  43  58 W8        30.23S
EUGENE         MOCLDY    57  46  66 N7        30.21S
$$

ORZ021-028-270400-
SOUTHWEST OREGON


CITY           SKY/WX    TMP DP  RH WIND       PRES   REMARKS
NORTH BEND     CLEAR     57  48  72 N16       30.25S
BROOKINGS      CLEAR     58  47  66 NW6       30.12R
ROSEBURG       CLOUDY    62  44  51 N8        30.18S
SEXTON SUMMIT  CLEAR     47  39  74 N9G22     30.14S
MEDFORD        CLEAR     64  39  39 N12       30.11R
$$

ORZ014>016-041-270400-
COLUMBIA GORGE


CITY           SKY/WX    TMP DP  RH WIND       PRES   REMARKS
TROUTDALE      CLOUDY    59  43  55 VRB5      30.19R
THE DALLES     MOCLDY    60  41  49 NW26G32   30.07F
$$

ORZ029>031-041-044-049-050-061>064-502-503-505>511-270400-
EASTERN OREGON


CITY           SKY/WX    TMP DP  RH WIND       PRES   REMARKS
REDMOND        CLEAR     53  32  44 NW16G26   30.08R
BEND           CLEAR     52  34  50 NW14      30.08R
PRINEVILLE     CLEAR     54  36  50 N10       30.08R
KLAMATH FALLS  CLEAR     59  38  45 NW8       30.07R
LAKEVIEW       CLEAR     61  32  33 W8        30.05R
HERMISTON        N/A    N/A N/A N/A MISG        N/A
PENDLETON      PTCLDY    58  37  45 W23G29    30.00R
JOHN DAY         N/A    N/A N/A N/A MISG        N/A
MEACHAM        CLEAR     51  34  52 W5        30.04R
LA GRANDE      PTCLDY    61  34  36 N12       29.98S
BAKER CITY     PTCLDY    58  38  47 N13       29.98R
BURNS          CLEAR     60  25  26 W9        29.98S
ROME             N/A     67  24  19 NW9       29.96R
ONTARIO        CLOUDY    70  42  36 W6        29.89R
$$




USA.gov is the U.S. government's official web portal to all federal, state and local government web resources and services.